[[{"header":{"parameterUnit":"m.s-1","parameterCategory":1,"la1":30.2991,"la2":30.254,"lo1":-89.0895,"lo2":-89.0444,"dy":0.0017,"dx":0.0017,"nx":28,"ny":28,"refTime":"2025-08-22T21:00:00:Z","depth":0,"parameterNumber":2,"parameterNumberName":"U-component_of_WINDS"},"data":[0,0,0,0,0,0,0,0,0,0,0,0,0,0,0,0,0,0,0,0,0,0,0,0,0,0,0,0,0,0,0,0,0,0,0,0,0,0,0,0,0,0,0,0,0,0,0,0,0,0,0,0,0,0,0,0,0,0,0.731,0.731,0,0.7301,0.7301,0.7301,0.7262,0.7261,0.726,0.726,0.7252,0.7253,0.7254,0,0,0,0,0,0,0,0,0,0,0,0,0,0.7296,0.7296,0.731,0.731,0.731,0.7301,0.7301,0.7301,0.7262,0.7261,0.726,0.7259,0.7252,0.7253,0.7254,0,0,0,0,0,0,0,0,0,0,0,0,0,0.7296,0.7296,0.731,0.729,0.7288,0.7301,0.7301,0.7301,0.7263,0.7261,0.726,0.7259,0.7252,0.7253,0.7254,0.7287,0,0,0.7257,0.7257,0,0,0,0,0,0,0,0,0.7296,0.7296,0.7293,0.7291,0.7289,0.7281,0.7293,0.7296,0.7263,0.7272,0.726,0.7258,0.7263,0.7263,0.7264,0.7286,0.7286,0.7257,0.7257,0.7258,0.7258,0,0,0,0,0,0,0,0.7296,0.7297,0.7307,0.7293,0.7291,0.7281,0.728,0.7293,0.7276,0.7271,0.7269,0.7268,0.7262,0.7264,0.7264,0.7286,0.7257,0.7258,0.7258,0.7259,0.7331,0.7333,0,0,0,0,0,0,0.7299,0.7297,0.7307,0.7306,0.7289,0.7283,0.7281,0.7285,0.7275,0.7272,0.7269,0.7266,0.7263,0.7263,0.7264,0.7299,0.7258,0.7259,0.7259,0.733,0.7332,0.7333,0,0,0,0,0,0,0.7298,0.73,0.7307,0.7301,0.7301,0.7284,0.7289,0.7286,0.7287,0.7273,0.727,0.7274,0.7262,0.7262,0.728,0.7299,0.7259,0.726,0.7328,0.7331,0.7332,0.7373,0,0,0,0,0,0,0.7298,0.73,0.7312,0.7301,0.7301,0.7324,0.7291,0.7287,0.7289,0.7285,0.7277,0.7275,0.7261,0.7279,0.7281,0.7299,0.7261,0.7327,0.7329,0.7332,0.737,0.7376,0.7381,0,0,0,0,0,0.7298,0.7325,0.7313,0.7315,0.7317,0.7326,0.7326,0.7308,0.7291,0.7303,0.7293,0.7275,0.7296,0.7281,0.7283,0.7302,0.7325,0.7329,0.7332,0.7367,0.7375,0.7381,0,0,0,0,0,0,0.734,0.7323,0.731,0.7335,0.7332,0.7319,0.7334,0.7317,0.732,0.7316,0.7295,0.7294,0.7315,0.731,0.7294,0.7332,0.7308,0.7311,0.7334,0.7341,0.7347,0.7347,0.7261,0,0,0,0,0,0.7352,0.7361,0.7346,0.7369,0.7368,0.7351,0.7355,0.7341,0.7337,0.7336,0.7328,0.7326,0.7332,0.7336,0.7341,0.7369,0.7366,0.7383,0.7388,0.7393,0.7397,0.7409,0.7415,0.7343,0.7343,0.7343,0,0,0.7378,0.737,0.7376,0.7377,0.7373,0.7382,0.735,0.7362,0.7368,0.7338,0.7354,0.7348,0.7344,0.7366,0.7376,0.7363,0.7416,0.7397,0.7401,0.7402,0.7413,0.7419,0.7426,0.7345,0.7345,0.7345,0,0,0.7428,0.7423,0.7441,0.7437,0.7431,0.7419,0.7423,0.7413,0.7407,0.7422,0.74,0.7407,0.7418,0.7415,0.7416,0.7462,0.7445,0.7465,0.7495,0.7507,0.7513,0.7517,0.7533,0.7539,0.7468,0.7468,0.7468,0,0.7461,0.7473,0.7452,0.7464,0.7465,0.7437,0.7454,0.7451,0.7448,0.7448,0.7434,0.7446,0.7442,0.7462,0.7473,0.7474,0.7478,0.7465,0.7513,0.7518,0.7522,0.7537,0.7543,0.747,0.747,0.747,0.747,0,0.7512,0.7521,0.7536,0.7531,0.7533,0.7548,0.7529,0.7534,0.752,0.7509,0.7525,0.7518,0.752,0.7524,0.7511,0.7542,0.7534,0.7517,0.7492,0.7532,0.7545,0.755,0.7474,0.7473,0.7472,0.7472,0,0,0.759,0.7572,0.7578,0.7574,0.7564,0.7571,0.7583,0.7584,0.7588,0.7586,0.7595,0.7604,0.7588,0.7588,0.7574,0.7585,0.762,0.7566,0.7566,0.7575,0.7652,0.7664,0.7671,0.7609,0.761,0.7611,0.7652,0,0.7637,0.7657,0.7638,0.7662,0.7668,0.7641,0.7652,0.7647,0.7637,0.7641,0.7631,0.7637,0.7615,0.7615,0.7624,0.7614,0.7635,0.7611,0.7617,0.7617,0.7618,0.7678,0.7691,0.773,0.7657,0.7658,0.7658,0,0.7695,0.7693,0.7717,0.7703,0.7705,0.7715,0.7713,0.7718,0.7711,0.7703,0.7702,0.7685,0.7696,0.7672,0.7686,0.767,0.7671,0.7666,0.7667,0.7667,0.764,0.7678,0.7743,0.7748,0.7666,0.7666,0.7665,0,0.7747,0.7751,0.7766,0.7764,0.7748,0.7756,0.775,0.7742,0.7742,0.7741,0.7741,0.7741,0.7741,0.7742,0.7725,0.7709,0.7741,0.7715,0.7734,0.7734,0.7742,0.7741,0.7807,0.7744,0.7744,0.7744,0.7744,0,0.7801,0.7817,0.7789,0.7797,0.7813,0.7791,0.7808,0.7799,0.7791,0.7798,0.7775,0.7781,0.7758,0.7762,0.7749,0.7762,0.7763,0.7756,0.7753,0.7758,0.7759,0.7758,0.7755,0.7745,0.7745,0.7745,0.7745,0,0.7863,0.7845,0.7858,0.7842,0.7838,0.785,0.7836,0.7843,0.7831,0.7839,0.784,0.7821,0.7825,0.7807,0.7809,0.7799,0.7819,0.7811,0.7821,0.7818,0.7837,0.7835,0.7903,0.7911,0.7844,0.7845,0.7846,0,0.7898,0.7909,0.7893,0.7894,0.7889,0.7893,0.7893,0.7871,0.7872,0.7864,0.7872,0.7873,0.7872,0.7879,0.7865,0.7865,0.7857,0.7881,0.7857,0.7861,0.7855,0.7855,0.7855,0.7886,0.7887,0.7887,0.7888,0,0.7962,0.7951,0.7952,0.7949,0.7949,0.7946,0.7941,0.7944,0.7921,0.7923,0.7925,0.7924,0.7924,0.7925,0.7921,0.7915,0.7897,0.7895,0.7899,0.7905,0.7909,0.7905,0.7833,0.7894,0.7893,0.7893,0.7892,0.7892,0.801,0.8018,0.8007,0.8007,0.8001,0.7997,0.8002,0.7989,0.7991,0.7987,0.7975,0.7979,0.797,0.7963,0.7959,0.7962,0.795,0.7957,0.7958,0.796,0.7962,0.7909,0.7961,0.7961,0.7961,0.7961,0.7961,0,0.8071,0.8062,0.8063,0.8056,0.8057,0.8038,0.8032,0.8033,0.8037,0.8029,0.8029,0.803,0.803,0.8016,0.8015,0.8019,0.8011,0.802,0.8019,0.8017,0.7973,0.7969,0.8026,0.8026,0.8026,0.8026,0.8026,0.8026,0.8103,0.8114,0.8103,0.811,0.8101,0.8103,0.8101,0.8096,0.809,0.8092,0.8092,0.8082,0.8072,0.8069,0.8068,0.8064,0.8064,0.8075,0.8068,0.8027,0.8021,0.8015,0.8011,0.8075,0.8075,0.8111,0.8112,0.8112]},{"header":{"parameterUnit":"m.s-1","parameterCategory":1,"la1":30.2991,"la2":30.254,"lo1":-89.0895,"lo2":-89.0444,"dy":0.0017,"dx":0.0017,"nx":28,"ny":28,"refTime":"2025-08-22T21:00:00:Z","depth":0,"parameterNumber":3,"parameterNumberName":"V-component_of_WINDS"},"data":[0,0,0,0,0,0,0,0,0,0,0,0,0,0,0,0,0,0,0,0,0,0,0,0,0,0,0,0,0,0,0,0,0,0,0,0,0,0,0,0,0,0,0,0,0,0,0,0,0,0,0,0,0,0,0,0,0,0,-0.6017,-0.6017,0,-0.6007,-0.6007,-0.6007,-0.6006,-0.6006,-0.6006,-0.6006,-0.5995,-0.5994,-0.5994,0,0,0,0,0,0,0,0,0,0,0,0,0,-0.6034,-0.6033,-0.6017,-0.6017,-0.6016,-0.6007,-0.6007,-0.6007,-0.6006,-0.6006,-0.6006,-0.6006,-0.5995,-0.5994,-0.5994,0,0,0,0,0,0,0,0,0,0,0,0,0,-0.6025,-0.6033,-0.6017,-0.6015,-0.6015,-0.6007,-0.6007,-0.6007,-0.6006,-0.6006,-0.6006,-0.6006,-0.5995,-0.5994,-0.5994,-0.5987,0,0,-0.5992,-0.5992,0,0,0,0,0,0,0,0,-0.6026,-0.6025,-0.6015,-0.6015,-0.6015,-0.6008,-0.6009,-0.6,-0.6006,-0.6009,-0.6006,-0.6006,-0.5999,-0.5998,-0.5996,-0.5986,-0.5986,-0.5992,-0.5991,-0.5991,-0.5991,0,0,0,0,0,0,0,-0.6026,-0.6025,-0.6013,-0.6015,-0.6015,-0.6014,-0.6013,-0.6007,-0.6003,-0.6009,-0.6009,-0.6008,-0.5999,-0.5996,-0.5995,-0.5986,-0.5992,-0.5991,-0.5991,-0.5991,-0.5972,-0.5972,0,0,0,0,0,0,-0.6027,-0.6026,-0.6013,-0.6013,-0.6021,-0.6014,-0.6013,-0.601,-0.6003,-0.6002,-0.6008,-0.6008,-0.5997,-0.5996,-0.5995,-0.5987,-0.5991,-0.5991,-0.599,-0.5972,-0.5972,-0.5972,0,0,0,0,0,0,-0.6028,-0.6026,-0.6014,-0.6019,-0.6017,-0.6014,-0.601,-0.601,-0.6007,-0.6002,-0.6001,-0.6006,-0.5997,-0.5996,-0.5989,-0.5987,-0.599,-0.599,-0.5972,-0.5972,-0.5972,-0.5972,0,0,0,0,0,0,-0.6028,-0.6026,-0.6024,-0.6019,-0.6017,-0.6008,-0.601,-0.6009,-0.6006,-0.6006,-0.6001,-0.6,-0.5997,-0.599,-0.5989,-0.5986,-0.5989,-0.5972,-0.5972,-0.5972,-0.5972,-0.5971,-0.5971,0,0,0,0,0,-0.6029,-0.6023,-0.6024,-0.6022,-0.6014,-0.6008,-0.6007,-0.6005,-0.6006,-0.6004,-0.6001,-0.6,-0.5988,-0.599,-0.5988,-0.5985,-0.5972,-0.5972,-0.5972,-0.5972,-0.5972,-0.5971,0,0,0,0,0,0,-0.6027,-0.6023,-0.6023,-0.6016,-0.6012,-0.6008,-0.6004,-0.6004,-0.6,-0.6,-0.5997,-0.5996,-0.599,-0.5987,-0.5989,-0.5979,-0.598,-0.598,-0.5981,-0.598,-0.598,-0.5981,-0.5989,0,0,0,0,0,-0.6026,-0.6022,-0.6018,-0.6012,-0.6011,-0.6008,-0.6005,-0.6004,-0.6,-0.5999,-0.5995,-0.5991,-0.5987,-0.5983,-0.5979,-0.5972,-0.5971,-0.5969,-0.5969,-0.5969,-0.5968,-0.5965,-0.5965,-0.5971,-0.5971,-0.5971,0,0,-0.6023,-0.602,-0.6017,-0.6012,-0.6009,-0.6005,-0.6006,-0.6002,-0.5999,-0.5998,-0.5992,-0.5989,-0.5985,-0.5978,-0.5975,-0.5976,-0.5966,-0.5968,-0.5968,-0.5967,-0.5965,-0.5964,-0.5964,-0.597,-0.5971,-0.5971,0,0,-0.6016,-0.6013,-0.6008,-0.6006,-0.6003,-0.6001,-0.6,-0.5996,-0.5995,-0.5989,-0.5989,-0.5985,-0.5977,-0.5974,-0.5971,-0.5966,-0.5965,-0.5964,-0.5962,-0.596,-0.5959,-0.5959,-0.5957,-0.5957,-0.5964,-0.5964,-0.5964,0,-0.6012,-0.6007,-0.6006,-0.6002,-0.6,-0.6,-0.5995,-0.5993,-0.5988,-0.5986,-0.5987,-0.5978,-0.5975,-0.5968,-0.5967,-0.5965,-0.5964,-0.5965,-0.5959,-0.5959,-0.5959,-0.5957,-0.5957,-0.5964,-0.5964,-0.5964,-0.5964,0,-0.6003,-0.5999,-0.5996,-0.5992,-0.599,-0.5985,-0.5984,-0.5982,-0.5981,-0.598,-0.5975,-0.5971,-0.5967,-0.5965,-0.5964,-0.5959,-0.596,-0.596,-0.5961,-0.5958,-0.5957,-0.5956,-0.5964,-0.5964,-0.5964,-0.5964,0,0,-0.5993,-0.599,-0.5989,-0.5988,-0.5985,-0.5982,-0.5978,-0.5975,-0.5973,-0.597,-0.5967,-0.5961,-0.5962,-0.5959,-0.5958,-0.5956,-0.5953,-0.5957,-0.5957,-0.5956,-0.5948,-0.5947,-0.5947,-0.5953,-0.5952,-0.5952,-0.5948,0,-0.5986,-0.5979,-0.5979,-0.5973,-0.597,-0.5971,-0.5968,-0.5966,-0.5965,-0.5962,-0.5961,-0.5957,-0.5959,-0.5957,-0.5955,-0.5953,-0.5951,-0.5954,-0.595,-0.595,-0.5951,-0.5946,-0.5945,-0.5941,-0.5948,-0.5948,-0.5947,0,-0.5976,-0.5974,-0.5968,-0.5967,-0.5965,-0.5963,-0.596,-0.5958,-0.5956,-0.5955,-0.5953,-0.5953,-0.595,-0.5952,-0.5947,-0.5949,-0.5948,-0.5947,-0.5947,-0.5946,-0.5948,-0.5945,-0.594,-0.5939,-0.5946,-0.5947,-0.5947,0,-0.5969,-0.5965,-0.5961,-0.596,-0.5959,-0.5957,-0.5956,-0.5955,-0.5953,-0.5951,-0.595,-0.5947,-0.5946,-0.5944,-0.5943,-0.5945,-0.5939,-0.5941,-0.5939,-0.5939,-0.5937,-0.5937,-0.5932,-0.5936,-0.5936,-0.5936,-0.5936,0,-0.5961,-0.5957,-0.5959,-0.5956,-0.5953,-0.5953,-0.595,-0.5949,-0.5948,-0.5946,-0.5947,-0.5944,-0.5944,-0.5942,-0.5941,-0.5938,-0.5937,-0.5937,-0.5937,-0.5937,-0.5937,-0.5936,-0.5936,-0.5936,-0.5936,-0.5936,-0.5936,0,-0.5953,-0.5954,-0.595,-0.5949,-0.5949,-0.5947,-0.5946,-0.5944,-0.5945,-0.5942,-0.5941,-0.5941,-0.5939,-0.5938,-0.5935,-0.5935,-0.5931,-0.5931,-0.5932,-0.5932,-0.593,-0.5931,-0.5924,-0.5923,-0.5928,-0.5928,-0.5928,0,-0.5947,-0.5945,-0.5945,-0.5944,-0.5944,-0.5942,-0.5941,-0.5942,-0.594,-0.5939,-0.5938,-0.5936,-0.5934,-0.5931,-0.593,-0.5928,-0.5928,-0.5926,-0.5928,-0.5929,-0.5929,-0.5929,-0.5929,-0.5926,-0.5925,-0.5925,-0.5925,0,-0.5938,-0.5939,-0.5937,-0.5937,-0.5936,-0.5935,-0.5934,-0.5933,-0.5934,-0.5933,-0.5931,-0.593,-0.5928,-0.5927,-0.5925,-0.5925,-0.5925,-0.5925,-0.5925,-0.5924,-0.5925,-0.5925,-0.5931,-0.5925,-0.5925,-0.5925,-0.5925,-0.5925,-0.5931,-0.5929,-0.593,-0.5929,-0.5929,-0.5928,-0.5927,-0.5928,-0.5926,-0.5925,-0.5926,-0.5924,-0.5924,-0.5922,-0.5922,-0.5921,-0.5921,-0.592,-0.592,-0.592,-0.592,-0.5926,-0.592,-0.592,-0.592,-0.592,-0.592,0,-0.5922,-0.5923,-0.5922,-0.5921,-0.5921,-0.5923,-0.5923,-0.5922,-0.5921,-0.5921,-0.592,-0.5919,-0.5918,-0.5918,-0.5917,-0.5916,-0.5916,-0.5916,-0.5916,-0.5916,-0.5919,-0.592,-0.5916,-0.5916,-0.5916,-0.5916,-0.5916,-0.5916,-0.5917,-0.5915,-0.5916,-0.5914,-0.5915,-0.5914,-0.5914,-0.5914,-0.5914,-0.5913,-0.5912,-0.5913,-0.5913,-0.5913,-0.5912,-0.5912,-0.5912,-0.5911,-0.5912,-0.5915,-0.5915,-0.5916,-0.5916,-0.5911,-0.5911,-0.5908,-0.5908,-0.5908]}]]